Duncan, OK

5:40 AM CST on November 22, 2019 (GMT -0600)
Halliburton

Weather History for KDUC - September, 2019

Change the Weather History Date:

Monday, September 9, 2019

  Actual Average (KLAW) Record (KLAW)
Temperature  
Mean Temperature 81 °F -  
Max Temperature 93 °F 90 °F 103 °F (1940)
Min Temperature 69 °F 66 °F 48 °F (2004)
Cooling Degree Days 16    
Growing Degree Days 31 (Base 50)    
Moisture  
Dew Point 65 °F    
Average Humidity 59    
Maximum Humidity 82    
Minimum Humidity 36    
Precipitation  
Precipitation 0.00 in - - ()
Sea Level Pressure  
Sea Level Pressure 29.97 in    
Wind  
Wind Speed 12 mph (SSE)    
Max Wind Speed 24 mph    
Max Gust Speed 31 mph    
Visibility 10 miles    
Events      
Averages and records for this station are not official NWS values.
T = Trace of Precipitation, MM = Missing Value Source: NWS Daily Summary

Daily Weather History Graph

Daily Weather History Graph

Search for Another Location

Airport or City:

Astronomy

Sep. 09, 2019 Rise Set
Actual Time 7:10 AM CDT 7:47 PM CDT
Civil Twilight 6:45 AM CDT 8:12 PM CDT
Nautical Twilight 6:15 AM CDT 8:42 PM CDT
Astronomical Twilight 5:44 AM CDT 9:12 PM CDT
Moon 5:32 PM CDT (9/9) 2:55 AM CDT (9/9)
Length of Visible Light 13h 27m
Length of Day
12h 36m
Waxing Gibbous, 83% of the Moon is Illuminated
Sep 9
Waxing Gibbous
Sep 13
Full
Sep 21
Last Quarter
Sep 28
New
Oct 5
First Quarter

Hourly Weather History & Observations

Time (CDT) Temp. Heat Index Dew Point Humidity Pressure Visibility Wind Dir Wind Speed Gust Speed Precip Events Conditions
12:15 AM 78.4 °F - 62.1 °F 57% 29.95 in 10.0 mi SSE 10.4 mph - N/A   Clear
12:35 AM 77.5 °F - 62.2 °F 59% 29.95 in 10.0 mi SSE 9.2 mph - N/A   Clear
12:55 AM 76.5 °F - 62.4 °F 62% 29.95 in 10.0 mi SSE 9.2 mph - N/A   Clear
1:15 AM 76.6 °F - 62.4 °F 61% 29.95 in 10.0 mi SSE 10.4 mph - N/A   Clear
1:35 AM 76.3 °F - 62.4 °F 62% 29.96 in 10.0 mi SSE 10.4 mph - N/A   Clear
1:55 AM 76.6 °F - 62.1 °F 61% 29.95 in 10.0 mi SSE 11.5 mph - N/A   Clear
2:35 AM 76.5 °F - 62.1 °F 61% 29.95 in 10.0 mi SSE 12.7 mph - N/A   Clear
2:55 AM 76.6 °F - 62.1 °F 61% 29.95 in 10.0 mi SSE 12.7 mph - N/A   Clear
3:15 AM 75.7 °F - 62.4 °F 63% 29.95 in 10.0 mi South 11.5 mph - N/A   Clear
3:35 AM 74.8 °F - 62.6 °F 66% 29.95 in 10.0 mi South 10.4 mph - N/A   Clear
3:55 AM 73.8 °F - 62.8 °F 68% 29.95 in 10.0 mi South 8.1 mph - N/A   Clear
4:15 AM 73.2 °F - 63.0 °F 70% 29.96 in 10.0 mi SSE 8.1 mph - N/A   Clear
4:35 AM 72.5 °F - 63.1 °F 72% 29.96 in 10.0 mi SSE 6.9 mph - N/A   Clear
4:55 AM 72.5 °F - 63.5 °F 73% 29.97 in - SSE 8.1 mph - N/A   Clear
5:15 AM 72.5 °F - 63.7 °F 74% 29.97 in 10.0 mi SSE 8.1 mph - N/A   Clear
5:35 AM 72.1 °F - 63.7 °F 75% 29.98 in 10.0 mi SSE 8.1 mph - N/A   Clear
5:55 AM 71.2 °F - 63.7 °F 77% 29.99 in 10.0 mi SSE 6.9 mph - N/A   Clear
6:15 AM 70.2 °F - 63.7 °F 80% 29.99 in 10.0 mi SSE 8.1 mph - N/A   Clear
6:35 AM 70.3 °F - 63.9 °F 80% 30.00 in 10.0 mi SSE 8.1 mph - N/A   Clear
6:55 AM 70.2 °F - 63.9 °F 80% 30.01 in 10.0 mi SSE 6.9 mph - N/A   Clear
7:15 AM 69.4 °F - 63.9 °F 82% 30.01 in 10.0 mi SSE 8.1 mph - N/A   Clear
7:35 AM 70.0 °F - 64.2 °F 82% 30.02 in 10.0 mi SSE 4.6 mph - N/A   Clear
7:55 AM 70.7 °F - 64.6 °F 81% 30.02 in 10.0 mi SSE 4.6 mph - N/A   Clear
8:15 AM 72.1 °F - 65.3 °F 79% 30.03 in 10.0 mi SSE 8.1 mph - N/A   Clear
8:35 AM 74.5 °F - 66.2 °F 75% 30.03 in 10.0 mi SSE 10.4 mph - N/A   Clear
8:55 AM 75.9 °F - 66.9 °F 74% 30.03 in 10.0 mi South 12.7 mph - N/A   Clear
9:15 AM 77.7 °F - 67.6 °F 71% 30.03 in 10.0 mi South 13.8 mph - N/A   Clear
9:35 AM 79.0 °F - 68.5 °F 70% 30.03 in 10.0 mi South 12.7 mph - N/A   Clear
9:55 AM 80.1 °F 82.9 °F 69.1 °F 69% 30.03 in 10.0 mi South 11.5 mph - N/A   Clear
10:15 AM 82.0 °F 85.9 °F 70.0 °F 67% 30.03 in 10.0 mi South 11.5 mph - N/A   Clear
10:35 AM 83.7 °F 88.3 °F 70.7 °F 65% 30.03 in 10.0 mi South 10.4 mph - N/A   Clear
10:55 AM 85.5 °F 90.8 °F 70.9 °F 62% 30.03 in 10.0 mi SSW 6.9 mph - N/A   Clear
11:15 AM 86.5 °F 91.0 °F 69.4 °F 57% 30.02 in 10.0 mi SSW 16.1 mph - N/A   Clear
11:35 AM 88.0 °F 92.5 °F 69.4 °F 54% 30.02 in 10.0 mi South 13.8 mph - N/A   Clear
11:55 AM 88.5 °F 93.1 °F 69.3 °F 53% 30.01 in 10.0 mi South 16.1 mph - N/A   Clear
12:15 PM 89.6 °F 94.3 °F 69.1 °F 51% 30.00 in 10.0 mi South 16.1 mph 24.2 mph N/A   Clear
12:35 PM 89.6 °F 93.9 °F 68.9 °F 50% 30.00 in 10.0 mi South 17.3 mph - N/A   Clear
12:55 PM 90.5 °F 95.5 °F 69.3 °F 50% 30.00 in 10.0 mi South 17.3 mph - N/A   Clear
1:15 PM 91.6 °F 96.7 °F 69.3 °F 48% 29.99 in 10.0 mi South 16.1 mph 21.9 mph N/A   Clear
1:35 PM 90.7 °F 95.9 °F 69.4 °F 50% 29.99 in 10.0 mi South 17.3 mph 20.7 mph N/A   Clear
1:55 PM 91.2 °F 95.0 °F 67.8 °F 46% 29.99 in 10.0 mi SSE 16.1 mph 27.6 mph N/A   Clear
2:15 PM 91.8 °F 94.2 °F 65.5 °F 42% 29.98 in 10.0 mi South 23.0 mph 27.6 mph N/A   Clear
2:35 PM 92.3 °F 94.7 °F 65.1 °F 41% 29.97 in 10.0 mi South 19.6 mph 29.9 mph N/A   Clear
2:55 PM 92.5 °F 94.1 °F 64.4 °F 39% 29.97 in 10.0 mi South 20.7 mph 29.9 mph N/A   Clear
3:15 PM 93.6 °F 95.9 °F 65.1 °F 39% 29.96 in 10.0 mi South 18.4 mph 25.3 mph N/A   Clear
3:35 PM 92.5 °F 94.6 °F 65.1 °F 40% 29.95 in 10.0 mi SSE 20.7 mph 29.9 mph N/A   Clear
3:55 PM 92.8 °F 93.5 °F 61.9 °F 36% 29.95 in 10.0 mi South 23.0 mph 31.1 mph N/A   Clear
4:15 PM 92.7 °F 93.2 °F 61.9 °F 36% 29.94 in 10.0 mi SSE 19.6 mph 28.8 mph N/A   Clear
4:35 PM 93.2 °F 94.1 °F 62.8 °F 36% 29.93 in 10.0 mi South 24.2 mph 27.6 mph N/A   Scattered Clouds
4:55 PM 92.7 °F 94.0 °F 63.5 °F 38% 29.93 in 10.0 mi South 19.6 mph - N/A   Clear
5:15 PM 92.3 °F 94.3 °F 64.9 °F 40% 29.92 in 10.0 mi SSE 17.3 mph 23.0 mph N/A   Scattered Clouds
5:35 PM 90.9 °F 93.1 °F 65.3 °F 43% 29.92 in 10.0 mi SSE 15.0 mph 25.3 mph N/A   Scattered Clouds
6:15 PM 90.9 °F 92.7 °F 64.6 °F 42% 29.92 in 10.0 mi SSE 19.6 mph 24.2 mph N/A   Clear
6:35 PM 90.1 °F 91.6 °F 64.2 °F 42% 29.92 in 10.0 mi SSE 17.3 mph - N/A   Clear
6:55 PM 89.2 °F 90.6 °F 64.0 °F 43% 29.92 in 10.0 mi SSE 13.8 mph 21.9 mph N/A   Clear
7:15 PM 87.3 °F 88.9 °F 64.9 °F 47% 29.93 in 10.0 mi SSE 10.4 mph - N/A   Clear
7:35 PM 85.6 °F 87.4 °F 65.1 °F 50% 29.93 in 10.0 mi SSE 10.4 mph - N/A   Clear
7:55 PM 84.0 °F 85.8 °F 65.1 °F 53% 29.93 in 10.0 mi SE 10.4 mph - N/A   Clear
8:15 PM 83.1 °F 85.0 °F 65.3 °F 55% 29.94 in 10.0 mi SE 10.4 mph - N/A   Clear
8:35 PM 82.0 °F 83.8 °F 64.9 °F 56% 29.94 in 10.0 mi SE 10.4 mph - N/A   Clear
8:55 PM 81.5 °F 83.1 °F 64.4 °F 56% 29.94 in 10.0 mi SE 10.4 mph - N/A   Clear
9:15 PM 81.1 °F 82.7 °F 64.2 °F 56% 29.95 in 10.0 mi SE 10.4 mph - N/A   Clear
9:35 PM 81.5 °F 82.9 °F 64.0 °F 55% 29.95 in 10.0 mi SE 10.4 mph - N/A   Clear
10:15 PM 81.0 °F 82.5 °F 63.9 °F 56% 29.96 in 10.0 mi SE 11.5 mph - N/A   Clear
10:35 PM 79.9 °F - 63.9 °F 58% 29.97 in 10.0 mi SE 10.4 mph - N/A   Clear
10:55 PM 79.5 °F - 64.8 °F 60% 29.97 in 10.0 mi SE 11.5 mph - N/A   Clear
11:15 PM 79.3 °F - 65.7 °F 63% 29.97 in 10.0 mi SE 11.5 mph - N/A   Clear
11:55 PM 79.2 °F - 66.0 °F 64% 29.98 in 10.0 mi SSE 13.8 mph 18.4 mph N/A   Clear